Location: Canazei
(46.4667°N, 11.7667°E)
Time: 14:43:00
(UTC+00:00)

N. Korean satellite - Pass Details

Date: 05 October 2021
Orbit: 450 x 495 km, 97.3° (Epoch: 19 October)

Event Time Altitude Azimuth Distance (km) Brightness Sun altitude
Rises 03:31:53 0° 30° (NNE) 2,563 10.9 -18.8°
Reaches altitude 10° 03:34:37 10° 53° (NE) 1,685 10.3 -18.3°
Maximum altitude 03:36:53 16° 92° (E) 1,367 9.9 -17.9°
Drops below altitude 10° 03:39:09 10° 130° (SE) 1,686 9.8 -17.6°
Sets 03:41:53 0° 153° (SSE) 2,566 10.4 -17.1°
